Probability
0 0 0 0 0 0 0 0 0 0 0 0 0 0 0 0 0 0 0 0 0 0 0 0 0 0 0 0 0 0 0 0 0 0 0 0 0 0 0 0 0 0 0
0 0 0 0 0 0 0 0 0 0 0 0 0 0 0 0 0 0 0 0 0 0 0 0 0 0 0 0 0 0 0 0 0 0 0 0 0 0 0 0 0 0 0
0 0 0 0 0 0 0 0 0 0 0 0 0 0 0 0 0 0 0 0 0 0 0 0 0 0 0 0 0 0 0 0 0 0 0 0 0 0 0 0 0 0 0
0 0 0 0 0 0 0 0 0 0 0 0 0 0 0 0 0 0 0 0 0 0 0 0 0 0 0 0 0 0 0 0 0 0 0 0 0 0 0 0 0 0 0
0 0 0 0 0 0 0 0 0 0 0 0 0 0 0 0 0 0 0 0 0 0 0 0 0 0 0 0 0 0 0 0 0 0 0 0 0 0 0 0 0 0 0
0 0 0 0 0 0 0 0 0 0 0 0 0 0 0 0 0 0 0 0 0 0 0 0 0 0 0 0 0 0 0 0 0 0 0 0 0 0 0 0 0 0 0
0 0 0 0 0 0 0 0 0 0 0 0 0 0 0 0 0 0 0 0 0 0 0 0 0 0 0 0 0 0 0 0 0 0 0 0 0 0 0 0 0 0 0
0 0 0 0 0 0 0 0 0 0 0 0 0 0 0 0 0 0 0 0 0 0 0 0 0 0 0 0 0 0 0 0 0 0 0 0 0 0 0 0 0 0 0
0 0 0 0 0 0 0 0 0 0 0 0 0 0 0 0 0 0 0 0 0 0 0 0 0 0 0 0 0 0 0 0 0 0 0 0 0 0 0 0 0 0 0
0 0 0 0 0 0 0 0 0 0 0 0 0 0 0 0 0 0 0 0 0 0 0 0 0 0 0 0 0 0 0 0 0 0 0 0 0 0 0 0 0 0 0
0 0 0 0 0 0 0 0 0 0 0 0 0 0 0 0 0 0 0 0 0 0 0 0 0 0 0 0 0 0 0 0 0 0 0 0 0 0 0 0 0 0 0
0 0 0 0 0 0 0 0 0 0 0 0 0 0 0 0 0 0 0 0 0 0 0 0 0 0 0 0 0 0 0 0 0 0 0 0 0 0 0 0 0 0 0
0 0 0 0 0 0 0 0 0 0 0 0 0 0 0 0 0 0 0 0 0 0 0 0 0 0 0 0 0 0 0 0 0 0 0 0 0 0 0 0 0 0 0
0 0 0 0 0 0 0 0 0 0 0 0 0 0 0 0 0 0 0 0 0 0 0 0 0 0 0 0 0 0 0 0 0 0 0 0 0 0 0 0 0 0 0
0 0 0 0 0 0 0 0 0 0 0 0 0 0 0 0 0 0 0 0 0 0 0 0 0 0 0 0 0 0 0 0 0 0 0 0 0 0 0 0 0 0 0
0 0 0 0 0 0 0 0 0 0 0 0 0 0 0 0 0 0 0 0 0 0 0 0 0 0 0 0 0 0 0 0 0 0 0 0 0 0 0 0 0 0 0
0 0 0 0 0 0 0 0 0 0 0 0 0 0 0 0 0 0 0 0 0 0 0 0 0 0 0 0 0 0 0 0 0 0 0 0 0 0 0 0 0 0 0
0 0 0 0 0 0 0 0 0 0 0 0 0 0 0 0 0 0 0 0 0 0 0 0 0 0 0 0 0 0 0 0 0 0 0 0 0 0 0 0 0 0 0
0 0 0 0 0 0 0 0 0 0 0 0 0 0 0 0 0 0 0 0 0 0 0 0 0 0 0 0 0 0 0 0 0 0 0 0 0 0 0 0 0 0 0
0 0 0 0 0 0 0 0 0 0 0 0 0 0 0 0 0 0 0 0 0 0 0 0 0 0 0 0 0 0 0 0 0 0 0 0 0 0 0 0 0 0 0
0 0 0 0 0 0 0 0 0 0 0 0 0 0 0 0 0 0 0 0 0 0 0 0 0 0 0 0 0 0 0 0 0 0 0 0 0 0 0 0 0 0 0
0 0 0 0 0 0 0 0 0 0 0 0 0 0 0 0 0 0 0 0 0 0 0 0 0 0 0 0 0 0 0 0 0 0 0 0 0 0 0 0 0 0 0
0 0 0 0 0 0 0 0 0 0 0 0 0 0 0 0 0 0 0 0 0 0 0 0 0 0 0 0 0 0 0 0 0 0 0 0 0 0 0 0 0 0 0
0 0 0 0 0 0 0 0 0 0 0 0 0 0 0 0 0 0 0 0 0 0 0 0 0 0 0 0 0 0 0 0 0 0 0 0 0 0 0 0 0 0 0
0 0 0 0 0 0 0 0 0 0 0 0 0 0 0 0 0 0 0 0 0 0 0 0 0 0 0 0 0 0 0 0 0 0 0 0 0 0 0 0 0 0 0
0 0 0 0 0 0 0 0 0 0 0 0 0 0 0 0 0 0 0 0 0 0 0 0 0 0 0 0 0 0 0 0 0 0 0 0 0 0 0 0 0 0 0
Wind_Speed
7 6 5 5 5 4 4 4 4 3 3 3 3 2 2 1 1 0 0 0 0 0 0 1 0 0 1 1 1 1 1 2 2 1 1 1 1 2 2 2 1 1 1
7 6 6 5 5 5 5 5 4 4 4 3 3 3 2 2 2 2 1 1 1 1 0 1 1 1 1 1 1 1 1 1 2 1 1 1 1 1 1 1 2 1 1
6 7 6 6 6 7 6 5 5 5 4 3 3 3 3 3 3 3 2 2 2 1 1 1 1 2 1 1 1 1 1 1 1 1 0 1 1 1 2 2 2 2 2
7 7 8 8 8 8 6 5 5 5 5 4 4 4 4 3 3 3 3 2 2 2 2 2 2 3 3 2 1 1 1 1 1 1 1 0 1 1 1 1 2 2 2
7 8 10 8 7 6 6 6 6 5 6 5 4 4 4 3 4 4 4 3 3 2 2 2 2 4 5 4 3 3 3 2 1 1 1 0 0 0 0 0 0 1 2
7 9 8 6 7 7 7 6 6 6 5 5 5 5 5 5 7 9 6 4 4 3 3 3 3 3 4 4 4 5 5 4 3 2 1 1 1 1 1 1 1 1 1
5 6 6 7 8 8 8 7 7 7 6 6 6 6 6 7 10 9 10 6 5 4 4 3 2 2 3 2 2 2 3 3 5 4 3 3 3 3 2 1 1 1 1
4 5 5 6 8 8 7 8 8 6 6 7 7 7 6 8 11 11 10 6 4 5 5 5 4 3 3 4 3 2 1 1 2 3 3 3 3 3 3 3 2 1 1
4 5 6 6 7 8 9 10 8 7 7 7 6 8 8 9 11 12 10 4 4 5 5 5 5 5 7 7 4 3 2 2 2 2 3 3 3 3 4 3 2 1 0
7 7 6 5 7 9 11 10 7 7 9 8 7 7 9 9 11 13 12 5 5 4 4 5 8 8 9 8 6 5 4 3 1 1 1 1 0 1 3 3 3 2 1
8 7 6 5 6 8 8 7 7 7 7 7 8 8 8 10 11 13 14 7 7 6 5 5 5 11 11 10 9 6 7 5 3 3 2 1 1 1 1 1 2 2 3
8 7 7 6 6 5 5 6 6 7 8 8 7 7 6 7 10 11 15 15 11 7 7 6 6 10 11 10 8 8 8 6 3 3 2 1 1 0 0 0 1 1 2
8 8 8 7 5 5 5 5 5 6 7 7 7 8 7 6 7 13 15 16 16 9 6 9 9 10 9 7 8 9 7 4 4 3 3 2 2 1 1 1 2 2 3
8 8 8 7 7 5 4 4 5 5 7 7 8 8 7 5 6 6 7 8 11 9 6 7 9 8 6 5 5 5 4 5 5 4 3 2 2 2 1 1 1 1 2
8 8 8 7 7 6 5 5 6 7 8 9 8 8 7 8 11 14 10 8 8 8 7 4 3 4 4 3 3 3 3 4 4 3 3 3 3 2 2 1 2 2 2
6 7 6 6 6 6 6 7 8 10 12 14 13 11 9 12 11 15 17 15 15 15 9 5 6 6 7 7 6 4 4 4 4 4 4 4 4 4 3 2 2 2 2
6 7 6 6 6 6 6 6 8 8 9 11 13 14 13 12 13 14 16 15 16 17 8 7 7 8 7 7 6 6 5 5 5 5 5 5 4 4 3 3 3 2 2
6 8 8 6 6 6 6 6 6 7 7 6 7 12 13 13 13 14 13 11 8 10 7 7 8 8 7 7 7 6 5 5 5 5 5 5 5 4 4 4 3 3 3
6 5 6 6 6 6 6 6 6 7 7 7 5 5 9 9 10 12 14 8 9 10 9 8 7 8 7 8 7 7 7 7 6 6 5 6 5 5 4 4 4 5 3
5 11 11 6 6 6 6 6 6 7 7 7 6 5 3 4 4 7 9 8 8 9 9 9 8 8 8 8 8 8 7 7 7 6 6 6 5 5 6 6 5 4 3
5 7 13 9 6 6 7 7 7 7 7 8 7 7 9 7 8 9 9 9 9 9 9 9 8 8 8 8 8 9 9 8 7 7 7 6 6 5 5 5 5 4 3
5 5 6 6 7 7 7 7 7 8 8 9 7 7 11 8 7 7 8 9 8 8 8 8 8 8 9 9 10 10 9 9 8 8 8 7 7 6 6 5 5 4 4
6 6 7 7 7 10 9 7 8 8 8 8 8 6 7 7 7 8 8 7 7 7 7 7 8 7 7 7 8 10 11 10 10 10 10 8 7 7 6 6 6 5 4
6 7 7 7 7 7 8 8 8 9 9 9 8 8 7 8 8 8 7 6 7 7 7 8 9 11 13 10 7 7 7 9 10 10 12 10 9 7 6 6 5 5 4
6 7 7 7 8 8 8 9 9 9 9 9 9 8 7 7 8 7 6 7 8 8 9 9 8 11 15 14 12 10 13 16 14 10 9 9 10 8 7 7 5 4 4
7 8 7 7 7 8 8 9 10 10 9 9 9 8 8 7 7 7 7 7 8 8 9 8 10 12 14 13 14 17 19 19 18 16 10 9 9 8 7 6 7 5 4
Wind_Direction
202 202 204 206 208 207 213 226 230 235 233 236 236 236 244 246 249 231 252 174 141 10 57 110 111 119 87 63 75 93 104 123 144 263 291 320 354 10 4 18 34 31 340
204 201 207 206 201 207 221 228 223 230 234 231 227 228 237 234 223 217 232 209 193 195 183 145 162 140 114 103 110 117 122 142 149 173 320 347 2 353 1 14 16 24 348
197 201 207 207 206 214 222 226 219 222 229 225 217 227 233 229 223 222 214 214 215 222 211 198 197 154 152 156 146 135 121 106 128 149 203 355 360 3 19 18 26 14 350
199 203 211 213 211 215 217 219 216 214 217 218 220 225 225 221 216 214 205 209 219 233 230 217 206 192 191 184 173 170 147 114 110 119 118 17 359 350 37 30 14 5 347
204 210 219 217 213 212 215 217 215 213 218 214 214 223 224 218 215 206 205 206 208 223 237 234 227 217 209 197 184 181 162 145 133 128 145 86 333 11 16 352 15 340 336
213 222 224 214 212 214 216 214 213 216 217 210 213 216 220 227 226 210 198 201 204 208 221 235 244 240 229 212 202 184 175 167 170 167 179 193 223 214 189 159 136 42 325
232 236 229 218 219 220 216 210 213 215 210 212 216 212 221 233 235 224 209 194 203 209 212 217 226 213 206 195 207 190 194 202 186 173 181 200 199 199 172 168 183 189 229
271 263 249 233 230 225 215 216 217 209 206 212 215 213 219 234 231 227 215 198 205 214 212 210 211 217 205 185 170 166 194 230 212 190 191 201 199 187 177 177 179 180 265
310 290 273 249 239 228 222 224 217 207 210 210 210 208 214 233 229 223 205 186 207 221 218 212 208 214 222 193 170 180 202 258 259 196 188 189 190 181 160 131 132 120 360
317 300 292 270 250 238 231 226 215 209 215 212 216 211 212 224 227 220 200 185 203 218 219 220 218 214 218 197 183 184 201 222 195 154 111 51 73 129 160 162 164 155 165
314 309 301 287 267 253 243 228 215 212 214 214 219 219 216 222 227 220 202 189 200 205 211 217 221 219 217 206 192 195 209 189 167 159 141 105 70 69 86 139 166 164 168
323 321 313 301 292 285 255 238 220 210 213 218 222 230 225 223 221 222 211 204 197 195 207 210 212 210 209 202 195 203 196 167 146 144 143 153 155 161 142 107 131 139 129
335 330 322 313 301 298 275 251 232 215 219 223 219 229 232 219 219 220 216 211 204 200 209 203 201 201 197 196 199 193 178 163 157 163 178 189 189 173 124 96 71 83 75
330 329 327 320 311 304 294 267 242 228 227 228 224 229 230 220 215 212 210 210 205 204 201 197 192 188 178 173 176 182 177 176 174 177 176 166 141 127 117 112 106 98 91
326 323 325 322 311 303 291 273 258 242 229 229 231 224 218 227 224 206 195 197 193 188 162 147 152 160 172 175 171 170 169 167 173 164 157 154 151 138 123 105 103 96 106
322 322 319 318 313 306 301 300 278 262 257 245 240 233 231 231 224 205 202 199 188 170 156 171 183 187 189 188 183 179 177 180 177 167 163 162 161 154 140 117 104 114 121
308 309 309 312 312 307 303 300 303 301 275 255 247 239 235 232 222 208 202 195 184 171 176 188 190 192 193 189 185 183 184 181 170 166 165 164 157 150 142 138 130 118 116
300 305 309 300 301 299 295 289 286 289 293 284 257 243 237 231 221 210 192 170 181 187 196 194 195 192 188 187 185 183 175 165 163 164 161 159 156 150 148 149 148 142 138
294 293 293 293 293 293 293 289 285 282 279 279 280 264 238 228 217 205 180 187 192 197 201 200 196 190 186 184 181 178 174 172 168 164 163 160 158 150 150 151 149 145 136
285 299 308 300 296 296 297 293 289 286 283 277 265 257 224 195 205 200 199 204 203 201 198 198 195 189 184 180 175 172 170 169 167 165 163 160 158 156 156 156 156 152 152
278 290 302 304 294 291 292 291 286 282 280 276 267 251 225 220 220 213 208 208 207 205 200 195 190 185 180 175 173 172 171 170 169 166 162 160 158 154 153 152 153 150 147
272 274 278 282 286 287 286 286 283 279 278 276 274 259 237 233 230 225 219 215 211 205 195 186 185 183 180 178 174 172 172 170 167 164 161 158 156 153 150 149 150 151 154
269 275 279 280 281 288 288 283 282 278 276 274 268 258 240 234 235 231 225 217 204 196 187 182 180 179 177 176 174 172 172 173 170 164 159 157 156 156 154 155 157 156 165
268 273 277 281 281 281 283 282 281 279 276 273 267 256 245 238 236 233 225 213 200 192 185 183 182 179 173 169 167 166 163 158 155 158 156 155 156 155 153 153 157 162 168
266 269 274 277 280 281 282 282 280 278 277 275 269 260 249 243 239 233 222 207 197 191 185 181 177 173 171 166 162 159 155 150 148 148 148 149 151 153 154 155 157 157 163
270 272 274 275 275 277 279 282 280 278 277 275 270 261 251 245 237 228 215 202 195 187 181 177 173 168 165 163 159 154 152 151 149 146 144 144 147 152 153 154 158 160 165